Location: Banksville Park
(38.5557°N, 75.1182°W)
Time: 18:55:47
(UTC+00:00)

SAR-Lupe-1 - Pass Details

Date: 19 January 2021
Orbit: 482 x 484 km, 98.2° (Epoch: 05 March)

Event Time Altitude Azimuth Distance (km) Brightness Sun altitude
Rises 10:46:37 0° 171° (S) 2,534 8.0 -17.1°
Reaches altitude 10° 10:48:40 10° 173° (S) 1,659 7.0 -16.7°
Maximum altitude 10:52:13 71° 258° (WSW) 515 3.9 -16.1°
Enters shadow 10:55:20 13° 342° (NNW) 1,480 6.2 -15.5°
